TimeCST,TemperatureF,Dew PointF,Humidity,Sea Level PressureIn,VisibilityMPH,Wind Direction,Wind SpeedMPH,Gust SpeedMPH,PrecipitationIn,Events,Conditions,WindDirDegrees,DateUTC
12:58 AM,30.0,23.0,75,30.45,10.0,NNE,6.9,-,N/A,,Overcast,20,2014-02-06 06:58:00
1:58 AM,29.8,22.8,75,30.45,10.0,NNE,6.9,-,N/A,,Overcast,20,2014-02-06 07:58:00
2:58 AM,29.5,22.8,76,30.45,10.0,North,6.9,-,N/A,,Overcast,360,2014-02-06 08:58:00
3:58 AM,29.1,22.5,76,30.45,10.0,North,9.2,-,N/A,,Overcast,360,2014-02-06 09:58:00
4:58 AM,28.9,22.5,77,30.48,10.0,North,8.1,-,N/A,,Overcast,10,2014-02-06 10:58:00
5:58 AM,28.2,21.6,76,30.49,10.0,North,9.2,-,N/A,,Overcast,10,2014-02-06 11:58:00
6:58 AM,28.0,21.6,77,30.48,10.0,North,11.5,-,N/A,,Overcast,10,2014-02-06 12:58:00
7:58 AM,28.0,21.2,76,30.47,10.0,North,10.4,-,N/A,,Overcast,10,2014-02-06 13:58:00
8:58 AM,28.4,20.1,71,30.54,10.0,North,6.9,-,N/A,,Overcast,10,2014-02-06 14:58:00
9:58 AM,29.1,19.8,68,30.54,10.0,NNE,6.9,-,N/A,,Overcast,30,2014-02-06 15:58:00
10:58 AM,29.5,19.6,67,30.56,10.0,NNE,5.8,-,N/A,,Overcast,30,2014-02-06 16:58:00
11:58 AM,31.6,20.7,64,30.53,10.0,NNE,9.2,-,N/A,,Mostly Cloudy,30,2014-02-06 17:58:00
12:58 PM,32.9,20.8,61,30.48,10.0,NNE,9.2,-,N/A,,Mostly Cloudy,30,2014-02-06 18:58:00
1:08 PM,32.0,19.4,60,30.45,10.0,North,11.5,-,N/A,,Mostly Cloudy,10,2014-02-06 19:08:00
1:58 PM,33.1,20.1,59,30.45,10.0,NE,10.4,-,N/A,,Mostly Cloudy,40,2014-02-06 19:58:00
2:58 PM,32.0,19.0,59,30.44,10.0,North,9.2,-,N/A,,Mostly Cloudy,10,2014-02-06 20:58:00
3:58 PM,32.4,19.0,58,30.43,10.0,Variable,5.8,-,N/A,,Mostly Cloudy,0,2014-02-06 21:58:00
4:58 PM,31.6,18.3,58,30.44,10.0,NE,5.8,-,N/A,,Overcast,50,2014-02-06 22:58:00
5:58 PM,31.5,18.7,59,30.44,10.0,NE,4.6,-,N/A,,Overcast,50,2014-02-06 23:58:00
6:58 PM,31.3,18.3,59,30.45,10.0,NE,3.5,-,N/A,,Overcast,40,2014-02-07 00:58:00
7:58 PM,30.9,19.2,62,30.45,10.0,ENE,3.5,-,N/A,,Overcast,70,2014-02-07 01:58:00
8:58 PM,30.6,18.9,62,30.44,10.0,ENE,5.8,-,N/A,,Overcast,60,2014-02-07 02:58:00
9:58 PM,30.2,18.7,62,30.44,10.0,NE,4.6,-,N/A,,Overcast,40,2014-02-07 03:58:00
10:58 PM,29.8,18.5,63,30.44,10.0,ENE,5.8,-,N/A,,Overcast,60,2014-02-07 04:58:00
11:58 PM,29.7,19.0,65,30.43,10.0,ENE,5.8,-,N/A,,Overcast,70,2014-02-07 05:58:00